LEBL Weather Reports


time (UTC)temp
F
wind
direction
speed
knots
gust
knots
rain 1hr
in
rain 24hr
in
rain mn
in
humidity
%
barometer
mb
20260510113004 68 230 18.2 0.0 0.00 0.00 0.00 77 1013.0
20260510110005 68 230 1.7 0.0 0.00 0.00 0.00 72 1013.0
20260510103004 66 230 18.2 0.0 0.00 0.00 0.00 82 1013.0
20260510101504 66 230 18.2 0.0 0.00 0.00 0.00 82 1013.0
20260510094504 66 240 18.2 0.0 0.00 0.00 0.00 77 1013.0
20260510093004 64 240 15.6 0.0 0.00 0.00 0.00 82 1013.0
20260510090004 64 240 14.8 0.0 0.00 0.00 0.00 88 1013.0
20260510084503 64 240 14.8 0.0 0.00 0.00 0.00 88 1013.0
20260510083004 64 240 13.9 0.0 0.00 0.00 0.00 82 1012.0
20260510081504 64 240 13.9 0.0 0.00 0.00 0.00 82 1012.0
20260510080005 63 250 13.0 0.0 0.00 0.00 0.00 93 1012.0
20260510071504 61 250 0.9 0.0 0.00 0.00 0.00 93 1012.0
20260510070005 59 0 1.7 0.0 0.00 0.00 0.00 93 1012.0
20260510064504 59 0 1.7 0.0 0.00 0.00 0.00 93 1012.0
20260510063004 57 20 2.6 0.0 0.00 0.00 0.00 100 1012.0
20260510061504 57 20 2.6 0.0 0.00 0.00 0.00 100 1012.0
20260510053004 55 0 0.9 0.0 0.00 0.00 0.00 100 1012.0
20260510051504 55 0 0.9 0.0 0.00 0.00 0.00 100 1012.0
20260510050005 54 340 5.2 0.0 0.00 0.00 0.00 100 1012.0
20260510044503 54 340 5.2 0.0 0.00 0.00 0.00 100 1012.0
20260510043004 54 320 7.0 0.0 0.00 0.00 0.00 100 1012.0
20260510033004 55 310 6.1 0.0 0.00 0.00 0.00 100 1013.0
20260510030004 55 280 4.3 0.0 0.00 0.00 0.00 100 1013.0
20260510024504 55 280 4.3 0.0 0.00 0.00 0.00 100 1013.0
20260510023005 55 300 5.2 0.0 0.00 0.00 0.00 100 1012.0
20260510021504 55 300 5.2 0.0 0.00 0.00 0.00 100 1012.0
20260510014504 55 330 4.3 0.0 0.00 0.00 0.00 100 1012.0
20260510011504 57 330 5.2 0.0 0.00 0.00 0.00 100 1013.0
20260510010004 57 330 5.2 0.0 0.00 0.00 0.00 100 1013.0
20260510004503 57 330 5.2 0.0 0.00 0.00 0.00 100 1013.0
20260510003005 57 310 5.2 0.0 0.00 0.00 0.00 100 1013.0
20260510001504 57 310 5.2 0.0 0.00 0.00 0.00 100 1013.0
20260510000004 59 300 6.1 0.0 0.00 0.00 0.00 93 1013.0
20260509234503 59 300 6.1 0.0 0.00 0.00 0.00 93 1013.0
20260509233004 59 310 4.3 0.0 0.00 0.00 0.00 93 1013.0
20260509231504 59 310 4.3 0.0 0.00 0.00 0.00 93 1013.0
20260509224504 59 310 4.3 0.0 0.00 0.00 0.00 93 1013.0
20260509223005 59 300 2.6 0.0 0.00 0.00 0.00 100 1013.0
20260509221504 59 300 2.6 0.0 0.00 0.00 0.00 100 1013.0
20260509220007 59 290 4.3 0.0 0.00 0.00 0.00 100 1013.0
20260509214503 59 290 4.3 0.0 0.00 0.00 0.00 100 1013.0
20260509213004 59 290 5.2 0.0 0.00 0.00 0.00 93 1013.0
20260509211504 59 290 5.2 0.0 0.00 0.00 0.00 93 1013.0
20260509210004 61 0 1.7 0.0 0.00 0.00 0.00 87 1012.0
20260509204503 61 0 1.7 0.0 0.00 0.00 0.00 87 1012.0
20260509203003 61 0 1.7 0.0 0.00 0.00 0.00 87 1012.0
20260509194504 59 290 0.9 0.0 0.00 0.00 0.00 93 1012.0
20260509193004 59 60 2.6 0.0 0.00 0.00 0.00 93 1011.0
20260509191503 59 60 2.6 0.0 0.00 0.00 0.00 93 1011.0
20260509190004 59 60 0.9 0.0 0.00 0.00 0.00 100 1010.0
20260509184503 59 60 0.9 0.0 0.00 0.00 0.00 100 1010.0
20260509183004 59 40 0.9 0.0 0.00 0.00 0.00 93 1010.0
20260509181504 59 40 0.9 0.0 0.00 0.00 0.00 93 1010.0
20260509180005 59 40 10.4 0.0 0.00 0.00 0.00 93 1010.0
20260509173004 59 50 7.0 0.0 0.00 0.00 0.00 93 1012.0
20260509171504 59 50 7.0 0.0 0.00 0.00 0.00 93 1012.0
20260509170005 61 80 6.1 0.0 0.00 0.00 0.00 93 1013.0
20260509164503 61 80 6.1 0.0 0.00 0.00 0.00 93 1013.0
20260509163004 63 100 5.2 0.0 0.00 0.00 0.00 88 1013.0
20260509161504 63 100 5.2 0.0 0.00 0.00 0.00 88 1013.0
20260509154504 61 50 10.4 0.0 0.00 0.00 0.00 87 1011.0
20260509153004 61 70 20.0 0.0 0.00 0.00 0.00 100 1009.0
20260509151503 61 70 20.0 0.0 0.00 0.00 0.00 100 1009.0
20260509150004 61 80 15.6 0.0 0.00 0.00 0.00 93 1011.0
20260509144504 61 80 15.6 0.0 0.00 0.00 0.00 93 1011.0
20260509143004 63 80 11.3 0.0 0.00 0.00 0.00 93 1012.0
20260509141504 63 80 11.3 0.0 0.00 0.00 0.00 93 1012.0
20260509134504 64 70 11.3 0.0 0.00 0.00 0.00 77 1012.0
20260509133004 66 60 13.9 0.0 0.00 0.00 0.00 77 1011.0
20260509124503 64 50 13.0 0.0 0.00 0.00 0.00 82 1012.0
20260509123004 64 70 13.0 0.0 0.00 0.00 0.00 77 1013.0
20260509121504 64 70 13.0 0.0 0.00 0.00 0.00 77 1013.0
20260509120004 66 80 12.2 0.0 0.00 0.00 0.00 72 1013.0
20260509114503 66 80 12.2 0.0 0.00 0.00 0.00 72 1013.0